TimePST,TemperatureF,Dew PointF,Humidity,Sea Level PressureIn,VisibilityMPH,Wind Direction,Wind SpeedMPH,Gust SpeedMPH,PrecipitationIn,Events,Conditions,WindDirDegrees,DateUTC
12:54 AM,43.0,34.0,71,30.30,10.0,ESE,5.8,-,N/A,,Clear,110,2012-01-19 08:54:00
1:54 AM,42.1,32.0,67,30.29,10.0,East,4.6,-,N/A,,Clear,90,2012-01-19 09:54:00
2:54 AM,41.0,30.9,67,30.27,10.0,East,6.9,-,N/A,,Clear,80,2012-01-19 10:54:00
3:54 AM,39.0,30.9,73,30.27,10.0,Calm,Calm,-,N/A,,Clear,0,2012-01-19 11:54:00
4:54 AM,37.0,30.0,76,30.26,10.0,East,4.6,-,N/A,,Clear,90,2012-01-19 12:54:00
5:54 AM,37.9,30.9,76,30.27,10.0,East,4.6,-,N/A,,Clear,100,2012-01-19 13:54:00
6:54 AM,39.9,30.9,70,30.25,10.0,ENE,4.6,-,N/A,,Clear,70,2012-01-19 14:54:00
7:54 AM,41.0,30.9,67,30.25,10.0,East,6.9,-,N/A,,Clear,90,2012-01-19 15:54:00
8:54 AM,48.0,34.0,58,30.27,10.0,Calm,Calm,-,N/A,,Clear,0,2012-01-19 16:54:00
9:54 AM,50.0,35.6,58,30.23,10.0,Calm,Calm,-,N/A,,Clear,0,2012-01-19 17:54:00
10:29 AM,51.8,42.8,71,30.23,10.0,Calm,Calm,-,N/A,,Mostly Cloudy,0,2012-01-19 18:29:00
10:54 AM,51.1,39.9,66,30.29,10.0,NW,4.6,-,N/A,,Mostly Cloudy,310,2012-01-19 18:54:00
11:54 AM,54.0,43.0,66,30.25,10.0,West,3.5,-,N/A,,Scattered Clouds,270,2012-01-19 19:54:00
12:07 PM,53.6,42.8,67,30.21,10.0,Calm,Calm,-,N/A,,Mostly Cloudy,0,2012-01-19 20:07:00
12:54 PM,53.1,42.1,66,30.21,10.0,West,3.5,-,N/A,,Overcast,280,2012-01-19 20:54:00
1:40 PM,53.6,42.8,67,30.16,10.0,Calm,Calm,-,N/A,,Scattered Clouds,0,2012-01-19 21:40:00
1:54 PM,54.0,43.0,66,30.19,10.0,Calm,Calm,-,N/A,,Scattered Clouds,0,2012-01-19 21:54:00
2:54 PM,52.0,43.0,71,30.21,10.0,West,5.8,-,N/A,,Partly Cloudy,260,2012-01-19 22:54:00
3:26 PM,51.8,42.8,71,30.16,10.0,Calm,Calm,-,N/A,,Mostly Cloudy,0,2012-01-19 23:26:00
3:54 PM,52.0,43.0,71,30.21,10.0,SSW,6.9,-,N/A,,Mostly Cloudy,210,2012-01-19 23:54:00
4:20 PM,53.6,42.8,67,30.14,10.0,SE,3.5,-,N/A,,Overcast,130,2012-01-20 00:20:00
4:54 PM,52.0,44.1,74,30.16,10.0,Calm,Calm,-,0.00,Rain,Light Rain,0,2012-01-20 00:54:00
5:54 PM,51.1,46.0,83,30.16,10.0,Calm,Calm,-,0.01,Rain,Light Rain,0,2012-01-20 01:54:00
6:54 PM,50.0,46.0,86,30.17,10.0,East,3.5,-,0.02,Rain,Light Rain,80,2012-01-20 02:54:00
7:51 PM,50.0,46.4,87,30.12,9.0,East,5.8,-,0.01,Rain,Rain,80,2012-01-20 03:51:00
7:54 PM,50.0,46.0,86,30.16,10.0,East,4.6,-,0.01,Rain,Light Rain,90,2012-01-20 03:54:00
8:54 PM,50.0,46.9,89,30.16,8.0,Calm,Calm,-,0.02,Rain,Light Rain,0,2012-01-20 04:54:00
9:01 PM,50.0,46.4,87,30.12,10.0,Calm,Calm,-,0.00,Rain,Light Rain,0,2012-01-20 05:01:00
9:54 PM,50.0,46.9,89,30.15,10.0,SE,3.5,-,0.00,,Overcast,130,2012-01-20 05:54:00
10:54 PM,50.0,46.0,86,30.15,10.0,ESE,5.8,-,N/A,,Overcast,110,2012-01-20 06:54:00
11:38 PM,51.8,46.4,82,30.11,10.0,ESE,4.6,-,N/A,,Overcast,110,2012-01-20 07:38:00
11:46 PM,51.8,46.4,82,30.11,10.0,East,3.5,-,N/A,,Overcast,100,2012-01-20 07:46:00
11:54 PM,51.1,46.9,86,30.14,10.0,Calm,Calm,-,N/A,,Overcast,0,2012-01-20 07:54:00